Showing default

KUIPER-00453, 68947

Orbit data source: Space-Track

KUIPER-00453, 68947 is a payload satellite owned by Kuiper Systems (US) in LEO that was launched on Thu, 30 Apr 2026 UTC via an ARIANE 64 launch vehicle from the French Guiana (FRGUI). Payload-class satellites include a variety of spacecraft equipped with specific instruments for various scientific and technological missions. These include communications satellites like Starlink; space stations such as the ISS; scientific satellites like the Hubble; Earth observation satellites from companies like Planet Labs, Umbra, and HawkEye 360; GPS; miniature CubeSats for education and research; and military/defense satellites.

Loading next visibility...
Identifier
68947, 2026-098AE
Orbit
LEO
Country
Flag of USUS
Related business
Manufacturer
Kuiper Systems
Mission
Operational Commercial Communications
Bus & Motor
KUIPER, Unknown motor
Mass
~490 kg wet, ~490 kg dry
Launch date (UTC)
2026-04-30 (2 months ago)
Launch vehicle
ARIANE 64
Launch site
French Guiana (FRGUI)
Object type
Payload
Rocket body
Debris
Shape & HBR
Box + 2 Pan, 3.4 m
Radar Cross Section
2.326 m², Large (>1 m²)

Expand to show TLE details & history
Last TLE update: 18 hours ago

TLE from 18 hours ago
0 KUIPER-00453
1 68947U 26098AE  26192.63097107  .00017315  00000-0  47351-3 0  9992
2 68947  51.8762 309.0961 0003314 314.3232  45.7483 15.37455507 11119
Epoch: 2026-07-11T15:08Z
TLE epoch observation values (Epoch: 2026-07-11T15:08:35.900Z)
Latitude
-0°
Longitude
152.40509°
Altitude
452.82 km
Speed
7.643 km/s
True Right ascension
20h 36m 23s
True Declination
0° 00' 00"
Sunlit
Object was in full shadow at epoch
Visualization orbit readout
Latitude
Unknown
Longitude
Unknown
Altitude
Unknown
Speed
Unknown
Apparent Right ascension
Unknown
Apparent Declination
Unknown
Sunlit
N/A
Visualization observer readout
Local Sidereal Time
21:20:39
Azimuth
Unknown
Elevation
Unknown
Doppler factor
Unknown
Orbital elements
Apogee altitude
456.367 km
Perigee altitude
451.839 km
Semi-major axis
6,832.24 km
Eccentricity
0.00033
Inclination
51.8762°
RAAN
309.0961°
Arg. of periapsis
314.3232°
True anomaly
45.77551°
Mean anomaly
45.7483°
Eccentric anomaly
45.7619°
Mean motion
3.84325 °/min
Orbital period
93.67 mins
BSTAR
0.00047351
Loading maneuver chart data...
Computing Atmospheric mass density...
Loading historical data...
Loading historical data...
Loading historical data...
Loading historical data...
Loading historical data...
Loading historical data...
Loading historical data...

Documentation

Showing up to 5 results
|